Location: Newark
(44.9861°N, 0.2536°E)
Time: 19:59:42
(UTC+00:00)

HuskySat-1 - Pass Details

Date: 13 July 2020
Orbit: 457 x 471 km, 51.6° (Epoch: 11 August)

Event Time Altitude Azimuth Distance (km) Brightness Sun altitude
Exits shadow 01:50:05 - 286° (WNW) 1,796 ? -19.1°
Reaches altitude 10° 01:50:36 10° 290° (WNW) 1,614 ? -19.0°
Maximum altitude 01:53:49 29° 352° (N) 872 ? -18.8°
Drops below altitude 10° 01:57:03 10° 55° (NE) 1,608 ? -18.5°
Sets 01:59:22 0° 67° (ENE) 2,481 ? -18.3°
